Regional Weather Roundup
Issued by NWS

Home | Current Version | Previous Version | Graphics & Text | Print | Product List | Glossary On
Versions: 1 2 3 4 5 6 7 8 9 10 11 12 13 14 15 16 17 18 19 20 21 22 23 24 25 26 27 28 29 30 31 32 33 34 35 36 37 38 39 40 41 42 43 44 45 46 47 48 49 50
000
ASUS43 KMPX 300901
RWRMN
WEATHER ROUNDUP FOR MINNESOTA
NATIONAL WEATHER SERVICE TWIN CITIES/CHANHASSEN MN
400 AM CDT THU JUL 30 2015


NOTE: "FAIR" INDICATES FEW OR NO CLOUDS BELOW 12,000 FEET WITH NO
SIGNIFICANT WEATHER AND/OR OBSTRUCTIONS TO VISIBILITY. N/A MEANS
CURRENT SKY AND/OR WEATHER CONDITIONS ARE NOT AVAILABLE.

MNZ060>063-068>070-301000-
   Twin Cities Metro

CITY           SKY/WX    TMP DP  RH WIND       PRES   REMARKS
TWIN CITIES    CLEAR     66  55  67 SW6       30.01S
ST PAUL        CLEAR     65  56  72 W5        30.01S
CRYSTAL        CLEAR     70  55  59 W9        29.99S
BLAINE         CLEAR     70  55  60 W9G16     30.00S
LAKEVILLE      CLEAR     61  55  82 W5        30.03S
EDEN PRAIRIE   CLEAR     62  55  77 SW7       30.02R
SOUTH ST PAUL  CLEAR     66  55  67 W9        30.01R
LAKE ELMO      FAIR      63  55  77 W5        30.02S
$$
MNZ001>005-007-008-013>017-022>024-027-028-301000-
   Northwest Minnesota

CITY           SKY/WX    TMP DP  RH WIND       PRES   REMARKS
BEMIDJI        CLEAR     60  56  87 W7        29.95R
HALLOCK        CLEAR     57  55  94 CALM      29.91R
ROSEAU         PTCLDY    59  54  82 W5        29.91R
WARROAD        CLEAR     57  54  88 W7        29.91R
THIEF RVR FALL CLEAR     59  55  88 W8        29.94S
CROOKSTON      CLEAR     61  57  88 W6        29.95S
FOSSTON        CLEAR     54  52  94 CALM      29.97R
DETROIT LAKES  CLEAR     64  54  68 W8        30.01R
MOORHEAD       CLEAR     63  55  77 W8        30.00R
PARK RAPIDS    CLEAR     58  54  86 W7        29.98R
MAHNOMEN       FAIR      59  56  89 W7        29.97S
$$
MNZ006-009>011-018-025>026-301000-
   North Central Minnesota

CITY           SKY/WX    TMP DP  RH WIND       PRES   REMARKS
BAUDETTE       CLEAR     57  52  83 W6        29.89R
FLAG ISLAND    CLEAR     63  57  82 W10       29.87R
INTL FALLS     CLEAR     58  54  86 W8        29.86R
WASKISH        CLEAR     64  59  82 W13G18    29.91R
BIG FORK       CLEAR     61  55  82 SW6       29.91R
LONGVILLE      CLEAR     63  57  82 W3        29.95R
GRAND RAPIDS   CLEAR     64  55  72 W9        29.93R
CRANE LAKE     CLEAR     61  54  77 W5        29.86R
ORR            CLEAR     61  52  72 W3        29.85R
COOK           CLEAR     59  52  77 W6        29.88R
WALKER         FAIR      62  56  80 W6        29.95R
$$
MNZ012-019>021-037-301000-
   Northeast Minnesota

CITY           SKY/WX    TMP DP  RH WIND       PRES   REMARKS
DULUTH         CLEAR     61  55  81 W10       29.90R
ELY            CLEAR     61  54  77 W10       29.85R
HIBBING        CLEAR     61  53  75 W6        29.90R
EVELETH        CLEAR     59  52  77 W6        29.90R
DULUTH HARBOR  CLEAR     66  57  72 SW13      29.90R
TWO HARBORS    CLEAR     66  57  72 W7G16     29.85R
SILVER BAY     CLEAR     64  54  68 W5        29.82R
GRAND MARAIS     N/A     54  47  77 VRB7G17   29.73R
G MARAIS ARPRT PTCLDY    61  50  67 W10G21    29.76F
$$
MNZ029>031-032-039>041-046>048-054>057-064-301000-
   West Central Minnesota

CITY           SKY/WX    TMP DP  RH WIND       PRES   REMARKS
FERGUS FALLS   CLEAR     57  54  88 CALM      30.02R
WHEATON        CLEAR     61  54  77 SW9       30.05R
MORRIS         CLEAR     63  54  72 W7        30.03R
ALEXANDRIA     CLEAR     63  54  72 W8        30.04R
ELBOW LAKE     FAIR      60  53  79 W8        30.02R
WADENA         CLEAR     59  54  82 SW6       30.00R
GLENWOOD       CLEAR     63  55  77 W10       30.04S
APPLETON       CLEAR     57  54  88 SW8       30.05R
BENSON         CLEAR     57  52  82 W6        30.04S
ORTONVILLE     CLEAR     63  52  67 W7        30.05S
MADISON        CLEAR     59  52  77 W7        30.07R
WILLMAR        FAIR      57  55  94 W6        30.07R
$$
MNZ033>034-036-042>043-049>051-058-059-301000-
   Central Minnesota

CITY           SKY/WX    TMP DP  RH WIND       PRES   REMARKS
ST CLOUD       CLEAR     62  55  77 W7        29.99F
SAUK CENTRE    FAIR      60  55  81 W8        30.02S
PAYNESVILLE    CLEAR     56  54  91 S7        30.04R
AITKIN         CLEAR     64  55  72 SW5       29.95R
PINE RIVER     CLEAR     63  55  77 CALM      30.00R
BRAINERD       CLEAR     64  56  75 W8        29.98R
STAPLES        CLEAR     63  54  72 W8        29.99R
LONG PRAIRIE   FAIR      61  54  77 SW6       30.02R
LITTLE FALLS   CLEAR     59  54  82 CALM      29.99S
LITCHFIELD     CLEAR     63  57  82 W3        30.04S
BUFFALO        CLEAR     63  55  76 SW5       30.03R
MAPLE LAKE     CLEAR     64  57  77 SW6       30.02S
$$
MNZ037-044-045-052-053-301000-
   East Central Minnesota

CITY           SKY/WX    TMP DP  RH WIND       PRES   REMARKS
PRINCETON      CLEAR     63  55  77 SW3       29.99S
MORA           CLEAR     64  55  72 W6        29.99R
CAMBRIDGE      CLEAR     68  54  60 W5        29.97S
RUSH CITY      PTCLDY    65  56  73 W8        29.98R
MOOSE LAKE     CLEAR     61  55  82 SW5       29.92S
HINCKLEY       FAIR      61  55  82 W5        29.96S
CLOQUET        CLEAR     64  54  68 W9        29.92R
MCGREGOR       CLEAR     63  55  77 W7        29.95R
$$
MNZ071>073-080-081-089-090-097-098-301000-
   Southwest Minnesota

CITY           SKY/WX    TMP DP  RH WIND       PRES   REMARKS
MONTEVIDEO     CLEAR     59  54  82 W3        30.08R
GRANITE FALLS  CLEAR     58  54  84 SW7       30.08S
CANBY          CLEAR     65  53  65 SW10      30.09S
MARSHALL       CLEAR     63  52  67 W10       30.09S
REDWOOD FALLS  CLEAR     65  53  65 W10       30.06S
OLIVIA         CLEAR     55  52  88 SW7       30.05S
PIPESTONE      CLEAR     59  54  82 CALM      30.13S
WINDOM         CLEAR     61  54  77 CALM      30.11S
WORTHINGTON    CLEAR     61  52  72 SW6       30.13S
JACKSON        CLEAR     61  55  82 W5        30.12S
TRACY          CLEAR     63  55  77 W8        30.10S
SLAYTON        CLEAR     60  55  82 CALM      30.13S
$$
MNZ065>067-074>077-082>085-091>093-301000-
   South Central Minnesota

CITY           SKY/WX    TMP DP  RH WIND       PRES   REMARKS
MANKATO        CLEAR     63  54  72 W8        30.06S
NEW ULM        CLEAR     57  55  94 W6        30.07S
ST JAMES       CLEAR     63  57  82 SW5       30.09S
FAIRMONT       CLEAR     63  52  67 W7        30.09S
GLENCOE        CLEAR     60  57  89 SW5       30.04R
FARIBAULT      CLEAR     63  57  82 SW6       30.06S
OWATONNA       CLEAR     61  55  82 SW6       30.07S
WASECA         CLEAR     55  54  94 SW3       30.09R
ALBERT LEA     CLEAR     64  55  72 W3        30.09S
$$
MNZ078>079-086>088-094>096-301000-
   Southeast Minnesota

CITY           SKY/WX    TMP DP  RH WIND       PRES   REMARKS
ROCHESTER      CLEAR     61  55  81 W12       30.08R
RED WING       CLEAR     59  55  88 CALM      30.01S
STANTON        CLEAR     61  56  84 S5        30.03S
DODGE CENTER   PTCLDY    57  55  94 W7        30.07S
WINONA         CLEAR     63  55  77 CALM      30.03S
AUSTIN         CLEAR     66  57  72 W7        30.08S
PRESTON        CLEAR     62  55  80 W9        30.08R
$$
ABBREVIATIONS USED IN REMARKS
   TC - TEMPERATURES IN CELSIUS
  WCI - WIND CHILL INDEX
   HX - HEAT INDEX
  VSB - VISIBILITY
$$



USA.gov is the U.S. government's official web portal to all federal, state and local government web resources and services.